Simultaneous Nadir Overpasses (SNOs) Predictions

Prediction of SNOs between LANDSAT-8 and METOP-B Satellite Orbit:

Table of predicted SNOs for the next 14.0 days since TLE Epoch: 8/18/2018
Index Date (LANDSAT-8) Time (LANDSAT-8) Lat,Lon (LANDSAT-8) SZA (LANDSAT-8 ) Date (METOP-B) Time (METOP-B) Lat,Lon (METOP-B) SZA (METOP-B ) Distance(km) Time Diff (sec)
1 08/20/2018 16:03:46 -81.23, 160.83 108.89 08/20/2018 16:02:59 -81.23, 160.74 108.92 1.45 47
2 08/20/2018 16:53:11 81.26, -31.03 71.20 08/20/2018 16:53:37 81.26, -30.91 71.22 2.05 26
3 08/23/2018 11:38:01 -81.25,-132.52 107.91 08/23/2018 11:37:17 -81.24,-132.66 107.94 2.48 44
4 08/23/2018 12:27:27 81.25, 35.21 72.13 08/23/2018 12:27:56 81.25, 35.25 72.14 0.69 29
5 08/26/2018 07:12:18 -81.23, -66.28 106.95 08/26/2018 07:11:37 -81.23, -66.46 106.99 3.14 41
6 08/26/2018 08:01:43 81.26, 101.80 73.13 08/26/2018 08:02:15 81.26, 101.79 73.14 0.48 32
7 08/29/2018 02:46:34 -81.24, 0.31 105.92 08/29/2018 02:45:55 -81.25, 0.49 105.92 3.02 39
8 08/29/2018 03:36:00 81.25, 167.99 74.10 08/29/2018 03:36:35 81.25, 167.93 74.11 1.23 35
9 08/31/2018 22:20:50 -81.25, 66.88 104.88 08/31/2018 22:20:14 -81.25, 67.05 104.87 2.88 36




NCC Satellite Simultaneous Nadir Overpasses (SNOs) Prediction Service
